GW4854 Weather Reports


time (UTC)temp
C
wind
direction
speed
KPH
gust
KPH
rain 1hr
cm
rain 24hr
cm
rain mn
cm
humidity
%
barometer
mb
20260510180322 20 222 11.3 16.1 0.00 0.00 0.00 72 1016.4
20260510175819 21 153 9.7 12.9 0.00 0.00 0.00 70 1016.3
20260510175315 -17 0.0 0.0 0.00 0.00 0.00 1016.2
20260510174811 21 254 6.4 6.4 0.00 0.00 0.00 71 1016.1
20260510174309 21 254 6.4 12.9 0.00 0.00 0.00 71 1016.2
20260510173805 21 180 6.4 11.3 0.00 0.00 0.00 73 1016.3
20260510173301 21 163 11.3 14.5 0.00 0.00 0.00 70 1016.5
20260510172756 21 51 3.2 6.4 0.00 0.00 0.00 71 1016.3
20260510172253 20 187 4.8 6.4 0.00 0.00 0.00 72 1016.4
20260510171749 20 191 6.4 9.7 0.00 0.00 0.00 72 1016.3
20260510171247 20 110 3.2 4.8 0.00 0.00 0.00 74 1016.3
20260510170744 19 121 6.4 9.7 0.00 0.00 0.00 74 1016.3
20260510170240 20 148 1.6 9.7 0.00 0.00 0.00 73 1016.2
20260510165735 20 176 1.6 4.8 0.00 0.00 0.00 76 1016.4
20260510165232 19 151 1.6 9.7 0.00 0.00 0.00 75 1016.4
20260510164729 19 155 6.4 9.7 0.00 0.00 0.00 75 1016.3
20260510164227 19 103 1.6 4.8 0.00 0.00 0.00 75 1016.7
20260510163726 19 168 8.0 9.7 0.00 0.00 0.00 73 1016.4
20260510163222 20 139 3.2 6.4 0.00 0.00 0.00 72 1016.4
20260510162722 20 173 4.8 11.3 0.00 0.00 0.00 73 1016.2
20260510162220 20 156 1.6 4.8 0.00 0.00 0.00 75 1016.2
20260510161715 20 162 3.2 6.4 0.00 0.00 0.00 75 1016.4
20260510161211 20 102 4.8 9.7 0.00 0.00 0.00 74 1016.4
20260510160709 20 86 3.2 4.8 0.00 0.00 0.00 77 1016.1
20260510160204 20 116 1.6 3.2 0.00 0.00 0.00 75 1016.0
20260510155700 19 53 1.6 3.2 0.00 0.00 0.00 76 1016.0
20260510155156 18 88 1.6 3.2 0.00 0.00 0.00 77 1016.1
20260510154652 18 130 1.6 1.6 0.00 0.00 0.00 80 1016.2
20260510154148 18 186 1.6 3.2 0.00 0.00 0.00 80 1016.3
20260510153643 18 125 1.6 3.2 0.00 0.00 0.00 75 1016.2
20260510153140 19 120 3.2 4.8 0.00 0.00 0.00 73 1016.3
20260510152636 19 147 6.4 6.4 0.00 0.00 0.00 72 1016.0
20260510152132 20 114 6.4 9.7 0.00 0.00 0.00 70 1016.0
20260510151629 20 155 3.2 4.8 0.00 0.00 0.00 72 1015.7
20260510151128 21 92 1.6 1.6 0.00 0.00 0.00 65 1015.5
20260510150628 21 12 6.4 6.4 0.00 0.00 0.00 64 1015.3
20260510150124 21 142 3.2 3.2 0.00 0.00 0.00 69 1015.5
20260510145620 21 117 6.4 9.7 0.00 0.00 0.00 68 1015.6
20260510145117 21 103 3.2 6.4 0.00 0.00 0.00 65 1015.9
20260510144613 21 31 6.4 11.3 0.00 0.00 0.00 67 1015.6
20260510144109 21 42 9.7 12.9 0.00 0.00 0.00 65 1015.7
20260510143605 21 125 4.8 9.7 0.00 0.00 0.00 65 1015.7
20260510143101 21 68 6.4 9.7 0.00 0.00 0.00 70 1015.8
20260510142558 20 31 6.4 9.7 0.00 0.00 0.00 69 1015.8
20260510142055 20 53 6.4 6.4 0.00 0.00 0.00 68 1015.7
20260510141551 20 46 9.7 12.9 0.00 0.00 0.00 71 1015.7
20260510141049 20 48 3.2 12.9 0.00 0.00 0.00 70 1015.7
20260510140545 20 43 4.8 4.8 0.00 0.00 0.00 69 1015.8
20260510140045 20 13 8.0 11.3 0.00 0.00 0.00 70 1015.9
20260510135541 19 74 3.2 9.7 0.00 0.00 0.00 72 1015.8
20260510135037 19 52 3.2 9.7 0.00 0.00 0.00 72 1015.6
20260510134534 19 83 9.7 12.9 0.00 0.00 0.00 72 1015.6
20260510134031 18 51 1.6 1.6 0.00 0.00 0.00 74 1015.6
20260510133527 18 65 8.0 11.3 0.00 0.00 0.00 75 1015.5
20260510133023 18 63 11.3 12.9 0.00 0.00 0.00 73 1015.3
20260510132520 19 64 6.4 9.7 0.00 0.00 0.00 71 1015.5
20260510132017 19 112 3.2 6.4 0.00 0.00 0.00 72 1015.4
20260510131515 19 70 3.2 3.2 0.00 0.00 0.00 72 1015.3
20260510131012 18 318 1.6 1.6 0.00 0.00 0.00 76 1015.3
20260510130508 18 337 3.2 6.4 0.00 0.00 0.00 76 1015.5
20260510130006 17 282 1.6 3.2 0.00 0.00 0.00 82 1015.6
20260510125501 17 166 0.0 1.6 0.00 0.00 0.00 88 1015.5
20260510124958 17 201 0.0 1.6 0.00 0.00 0.00 90 1015.4
20260510124454 16 242 1.6 3.2 0.00 0.00 0.00 90 1015.4
20260510123951 16 248 3.2 3.2 0.00 0.00 0.00 92 1015.4
20260510123447 15 279 1.6 4.8 0.00 0.00 0.00 96 1015.4
20260510122943 15 276 1.6 1.6 0.00 0.00 0.00 99 1015.5
20260510122438 13 277 0.0 1.6 0.00 0.00 0.00 99 1015.6
20260510121935 13 245 0.0 1.6 0.00 0.00 0.00 99 1015.5
20260510121432 13 270 1.6 1.6 0.00 0.00 0.00 99 1015.5
20260510120930 12 249 0.0 1.6 0.00 0.00 0.00 99 1015.5
20260510120427 12 261 1.6 1.6 0.00 0.00 0.00 99 1015.4
20260510115923 11 255 1.6 1.6 0.00 0.00 0.00 99 1015.3
20260510115420 11 249 1.6 3.2 0.00 0.00 0.00 99 1015.2
20260510114915 10 251 0.0 1.6 0.00 0.00 0.00 99 1015.3
20260510114413 10 244 1.6 1.6 0.00 0.00 0.00 99 1015.0
20260510113908 10 274 1.6 3.2 0.00 0.00 0.00 99 1015.1
20260510113404 10 254 1.6 1.6 0.00 0.00 0.00 99 1014.9
20260510112902 10 260 0.0 1.6 0.00 0.00 0.00 99 1014.9
20260510112358 10 30 0.0 1.6 0.00 0.00 0.00 99 1014.9
20260510111854 9 250 0.0 1.6 0.00 0.00 0.00 99 1014.5
20260510111351 8 269 0.0 1.6 0.00 0.00 0.00 99 1014.5
20260510110846 8 269 0.0 0.0 0.00 0.00 0.00 99 1014.3
20260510110343 8 269 0.0 0.0 0.00 0.00 0.00 99 1014.3
20260510105839 8 277 0.0 0.0 0.00 0.00 0.00 99 1014.1
20260510105339 7 18 0.0 1.6 0.00 0.00 0.00 99 1014.2
20260510104835 7 285 0.0 0.0 0.00 0.00 0.00 99 1014.0
20260510104332 7 285 0.0 0.0 0.00 0.00 0.00 99 1014.0
20260510103829 7 285 0.0 0.0 0.00 0.00 0.00 99 1013.8
20260510103326 7 285 0.0 0.0 0.00 0.00 0.00 99 1014.0
20260510102821 7 285 0.0 0.0 0.00 0.00 0.00 99 1013.8
20260510102317 7 285 0.0 1.6 0.00 0.00 0.00 99 1013.6
20260510101815 7 331 1.6 1.6 0.00 0.00 0.00 99 1013.9
20260510101313 7 255 1.6 1.6 0.00 0.00 0.00 99 1013.9
20260510100808 7 269 0.0 1.6 0.00 0.00 0.00 99 1013.8
20260510100307 7 254 0.0 1.6 0.00 0.00 0.00 99 1013.5
20260510095802 7 46 0.0 0.0 0.00 0.00 0.00 99 1013.5
20260510095257 7 46 0.0 0.0 0.00 0.00 0.00 99 1013.3
20260510094756 7 328 1.6 1.6 0.00 0.00 0.00 99 1013.2
20260510094252 7 328 0.0 0.0 0.00 0.00 0.00 99 1013.3
20260510093748 7 328 0.0 0.0 0.00 0.00 0.00 99 1013.4
20260510093245 7 328 0.0 0.0 0.00 0.00 0.00 99 1013.3
20260510092741 7 328 1.6 1.6 0.00 0.00 0.00 99 1013.1
20260510092237 7 328 0.0 0.0 0.00 0.00 0.00 99 1013.1
20260510091733 7 328 0.0 0.0 0.00 0.00 0.00 99 1013.2
20260510091230 7 328 0.0 0.0 0.00 0.00 0.00 99 1013.2
20260510090726 7 328 0.0 0.0 0.00 0.00 0.00 99 1013.1
20260510090224 7 328 0.0 0.0 0.00 0.00 0.00 99 1013.1
20260510085719 7 328 0.0 0.0 0.00 0.00 0.00 99 1013.1
20260510085214 8 328 0.0 0.0 0.00 0.00 0.00 99 1013.0
20260510084710 7 328 0.0 0.0 0.00 0.00 0.00 99 1013.0
20260510084207 8 328 0.0 0.0 0.00 0.00 0.00 99 1012.8
20260510083704 8 328 0.0 0.0 0.00 0.00 0.00 99 1012.8
20260510083201 8 328 0.0 0.0 0.00 0.00 0.00 99 1012.7
20260510082656 8 328 0.0 0.0 0.00 0.00 0.00 99 1012.7
20260510082152 8 328 0.0 0.0 0.00 0.00 0.00 99 1012.8
20260510081647 8 327 1.6 1.6 0.00 0.00 0.00 99 1012.7
20260510081143 8 328 0.0 1.6 0.00 0.00 0.00 99 1012.8
20260510080642 8 328 0.0 1.6 0.00 0.00 0.00 99 1012.6
20260510080140 8 328 0.0 0.0 0.00 0.00 0.00 99 1012.5
20260510075637 8 328 0.0 1.6 0.00 0.00 0.00 99 1012.6
20260510075134 8 327 0.0 1.6 0.00 0.00 0.00 99 1012.4
20260510074631 8 327 1.6 3.2 0.00 0.00 0.00 99 1012.7
20260510074126 8 328 1.6 1.6 0.00 0.00 0.00 99 1012.4
20260510073623 8 328 1.6 3.2 0.00 0.00 0.00 99 1012.5
20260510073120 8 328 0.0 1.6 0.00 0.00 0.00 99 1012.4
20260510072616 8 328 1.6 1.6 0.00 0.00 0.00 99 1012.4
20260510072113 8 328 0.0 0.0 0.00 0.00 0.00 99 1012.4
20260510071608 8 328 0.0 0.0 0.00 0.00 0.00 99 1012.6
20260510071106 8 327 0.0 1.6 0.00 0.00 0.00 99 1012.5
20260510070603 8 328 0.0 1.6 0.00 0.00 0.00 99 1012.4
20260510065557 8 328 0.0 1.6 0.00 0.00 0.00 99 1012.4
20260510065053 8 328 0.0 1.6 0.00 0.00 0.00 99 1012.5
20260510064549 8 328 0.0 0.0 0.00 0.00 0.00 99 1012.5
20260510064046 9 328 1.6 1.6 0.00 0.00 0.00 99 1012.6
20260510063543 8 328 0.0 0.0 0.00 0.00 0.00 99 1012.6
20260510063040 8 328 0.0 1.6 0.00 0.00 0.00 99 1012.7
20260510062536 9 328 0.0 0.0 0.00 0.00 0.00 99 1012.4
20260510062031 8 328 0.0 1.6 0.00 0.00 0.00 99 1012.5
20260510061528 9 328 0.0 1.6 0.00 0.00 0.00 99 1012.3
20260510061025 9 328 0.0 0.0 0.00 0.00 0.00 99 1012.6
20260510060521 9 328 1.6 1.6 0.00 0.00 0.00 99 1012.5
20260510060017 9 328 0.0 0.0 0.00 0.00 0.00 99 1012.6
20260510055513 9 328 0.0 1.6 0.00 0.00 0.00 99 1012.6
20260510055012 9 328 1.6 1.6 0.00 0.00 0.00 99 1012.6
20260510054507 9 328 0.0 0.0 0.00 0.00 0.00 99 1012.7
20260510054002 9 328 0.0 0.0 0.00 0.00 0.00 99 1012.5
20260510053457 9 328 0.0 1.6 0.00 0.00 0.00 99 1012.7
20260510052954 9 328 0.0 1.6 0.00 0.00 0.00 99 1012.5
20260510052450 10 328 0.0 1.6 0.00 0.00 0.00 99 1012.7
20260510051946 9 328 3.2 3.2 0.00 0.00 0.00 99 1012.7
20260510051442 9 329 1.6 1.6 0.00 0.00 0.00 99 1012.7
20260510050938 9 329 3.2 3.2 0.00 0.00 0.00 99 1012.9
20260510050436 9 329 0.0 1.6 0.00 0.00 0.00 99 1012.9
20260510045933 9 329 1.6 1.6 0.00 0.00 0.00 99 1012.7
20260510045430 9 329 1.6 1.6 0.00 0.00 0.00 99 1012.7
20260510044927 10 329 1.6 1.6 0.00 0.00 0.00 99 1012.7
20260510044424 10 329 1.6 1.6 0.00 0.00 0.00 99 1012.8
20260510043920 10 329 1.6 1.6 0.00 0.00 0.00 99 1012.8
20260510043416 10 329 1.6 1.6 0.00 0.00 0.00 99 1013.0
20260510042915 10 329 1.6 1.6 0.00 0.00 0.00 99 1013.1
20260510042410 10 329 1.6 1.6 0.00 0.00 0.00 99 1013.0
20260510041906 10 329 1.6 3.2 0.00 0.00 0.00 99 1012.9
20260510041403 10 330 1.6 1.6 0.00 0.00 0.00 99 1012.9
20260510040901 10 330 0.0 0.0 0.00 0.00 0.00 99 1012.8
20260510040358 10 330 1.6 1.6 0.00 0.00 0.00 99 1012.9
20260510035854 10 330 0.0 0.0 0.00 0.00 0.00 99 1013.0
20260510035349 10 330 0.0 0.0 0.00 0.00 0.00 99 1012.9
20260510034844 10 330 1.6 1.6 0.00 0.00 0.00 99 1012.9
20260510034343 10 330 1.6 1.6 0.00 0.00 0.00 99 1012.9
20260510033839 10 330 0.0 1.6 0.00 0.00 0.00 99 1013.0
20260510033336 10 330 0.0 1.6 0.00 0.00 0.00 99 1012.9
20260510032832 10 330 1.6 1.6 0.00 0.00 0.00 99 1013.0
20260510032330 10 330 0.0 0.0 0.00 0.00 0.00 99 1012.8
20260510031825 11 330 0.0 1.6 0.00 0.00 0.00 99 1012.6
20260510031320 11 330 0.0 0.0 0.00 0.00 0.00 98 1012.7
20260510030815 11 330 0.0 0.0 0.00 0.00 0.00 98 1012.7
20260510030312 11 330 0.0 0.0 0.00 0.00 0.00 98 1012.7
20260510025809 11 330 0.0 0.0 0.00 0.00 0.00 98 1012.5
20260510025306 11 330 0.0 0.0 0.00 0.00 0.00 97 1012.4
20260510024803 11 330 0.0 0.0 0.00 0.00 0.00 97 1012.3
20260510024300 11 330 0.0 0.0 0.00 0.00 0.00 97 1012.3
20260510023756 11 330 0.0 0.0 0.00 0.00 0.00 97 1012.1
20260510023253 11 330 0.0 0.0 0.00 0.00 0.00 97 1012.1
20260510022750 11 330 0.0 1.6 0.00 0.00 0.00 96 1012.2
20260510022249 11 330 0.0 1.6 0.00 0.00 0.00 96 1012.1
20260510021749 12 330 0.0 1.6 0.00 0.00 0.00 96 1012.2
20260510021247 12 330 1.6 1.6 0.00 0.00 0.00 96 1012.2
20260510020743 12 330 0.0 1.6 0.00 0.00 0.00 95 1012.0
20260510020242 12 330 0.0 1.6 0.00 0.00 0.00 95 1011.9
20260510015739 12 330 1.6 1.6 0.00 0.00 0.00 94 1012.0
20260510015235 12 330 0.0 0.0 0.00 0.00 0.00 93 1011.8
20260510014730 12 331 0.0 0.0 0.00 0.00 0.00 93 1011.6
20260510014228 12 331 0.0 0.0 0.00 0.00 0.00 92 1011.5
20260510013723 13 331 0.0 0.0 0.00 0.00 0.00 92 1011.5
20260510013219 13 331 0.0 0.0 0.00 0.00 0.00 91 1011.5
20260510012719 13 331 0.0 0.0 0.00 0.00 0.00 91 1011.2
20260510012214 13 331 0.0 0.0 0.00 0.00 0.00 90 1011.1
20260510011709 13 331 0.0 0.0 0.00 0.00 0.00 89 1011.1
20260510011205 13 331 0.0 0.0 0.00 0.00 0.00 88 1011.0
20260510010702 14 331 0.0 0.0 0.00 0.00 0.00 86 1010.9
20260510010158 14 331 0.0 0.0 0.00 0.00 0.00 85 1010.9
20260510005655 15 332 0.0 0.0 0.00 0.00 0.00 84 1011.0
20260510005151 15 332 0.0 0.0 0.00 0.00 0.00 82 1010.9
20260510004650 15 332 0.0 0.0 0.00 0.00 0.00 80 1010.8
20260510004148 16 332 0.0 0.0 0.00 0.00 0.00 79 1011.0
20260510003645 16 332 0.0 0.0 0.00 0.00 0.00 77 1010.9
20260510003140 17 332 0.0 0.0 0.00 0.00 0.00 75 1010.7
20260510002635 17 332 0.0 0.0 0.00 0.00 0.00 73 1010.7
20260510002132 18 50 0.0 1.6 0.00 0.00 0.00 68 1010.2
20260510001629 18 44 1.6 3.2 0.00 0.00 0.00 66 1010.4
20260510001128 19 35 4.8 6.4 0.00 0.00 0.00 65 1010.4
20260510000627 18 39 6.4 9.7 0.00 0.00 0.00 65 1010.5
20260510000125 19 38 3.2 6.4 0.00 0.00 0.00 65 1010.6
20260509235621 19 72 3.2 4.8 0.00 0.00 0.00 64 1010.2
20260509235118 20 59 4.8 12.9 0.00 0.00 0.00 63 1010.2
20260509234614 20 66 4.8 11.3 0.00 0.00 0.00 62 1010.0
20260509234112 20 44 6.4 11.3 0.00 0.00 0.00 62 1010.2
20260509233610 20 34 9.7 12.9 0.00 0.00 0.00 61 1010.4
20260509233107 20 47 3.2 6.4 0.00 0.00 0.00 60 1010.2
20260509232603 20 49 4.8 4.8 0.00 0.00 0.00 61 1010.1
20260509232100 20 79 4.8 6.4 0.00 0.00 0.00 62 1010.0
20260509231556 20 42 9.7 11.3 0.00 0.00 0.00 59 1010.2
20260509231054 20 37 6.4 6.4 0.00 0.00 0.00 60 1010.1
20260509230551 20 56 11.3 16.1 0.00 0.00 0.00 61 1010.2
20260509230048 20 72 4.8 6.4 0.00 0.00 0.00 62 1010.2
20260509225549 20 68 6.4 11.3 0.00 0.00 0.00 62 1010.1
20260509225044 20 26 3.2 3.2 0.00 0.00 0.00 61 1010.0
20260509224540 20 60 6.4 12.9 0.00 0.00 0.00 61 1010.1
20260509224037 21 40 11.3 14.5 0.00 0.00 0.00 57 1010.1
20260509223534 21 35 6.4 9.7 0.00 0.00 0.00 60 1010.0
20260509223032 21 49 6.4 9.7 0.00 0.00 0.00 58 1010.1
20260509222528 21 69 9.7 11.3 0.00 0.00 0.00 59 1010.0
20260509222023 21 41 3.2 6.4 0.00 0.00 0.00 56 1010.1
20260509221519 21 3 6.4 12.9 0.00 0.00 0.00 59 1010.0
20260509221015 21 49 9.7 16.1 0.00 0.00 0.00 59 1010.2
20260509220512 21 52 9.7 12.9 0.00 0.00 0.00 57 1010.1
20260509220008 21 70 4.8 9.7 0.00 0.00 0.00 60 1010.5
20260509215503 21 46 9.7 12.9 0.00 0.00 0.00 58 1010.4
20260509215001 21 42 8.0 11.3 0.00 0.00 0.00 59 1010.2
20260509214458 21 82 6.4 12.9 0.00 0.00 0.00 58 1010.2
20260509213954 22 99 4.8 17.7 0.00 0.00 0.00 57 1010.5
20260509213451 22 46 8.0 12.9 0.00 0.00 0.00 59 1010.4
20260509212948 21 45 3.2 12.9 0.00 0.00 0.00 60 1010.5
20260509212445 21 51 3.2 11.3 0.00 0.00 0.00 59 1010.4
20260509211942 21 63 9.7 11.3 0.00 0.00 0.00 61 1010.6
20260509211437 21 37 8.0 9.7 0.00 0.00 0.00 61 1010.4
20260509210934 21 37 4.8 6.4 0.00 0.00 0.00 61 1010.5
20260509210431 21 40 12.9 16.1 0.00 0.00 0.00 58 1010.5
20260509205926 21 75 3.2 4.8 0.00 0.00 0.00 60 1010.5
20260509205421 20 45 3.2 4.8 0.00 0.00 0.00 62 1010.6
20260509204917 20 45 3.2 4.8 0.00 0.00 0.00 62 1010.5
20260509204413 20 51 8.0 14.5 0.00 0.00 0.00 63 1010.4
20260509203910 21 83 4.8 11.3 0.00 0.00 0.00 62 1010.6
20260509203406 20 93 6.4 6.4 0.00 0.00 0.00 64 1010.5
20260509202904 20 85 6.4 6.4 0.00 0.00 0.00 64 1010.4
20260509202359 21 63 6.4 9.7 0.00 0.00 0.00 62 1010.5
20260509201854 21 88 3.2 11.3 0.00 0.00 0.00 63 1010.5
20260509201350 21 50 3.2 4.8 0.00 0.00 0.00 63 1010.4
20260509200848 21 20 6.4 9.7 0.00 0.00 0.00 59 1010.6
20260509200342 20 54 4.8 4.8 0.00 0.00 0.00 66 1010.6
20260509195840 20 88 4.8 4.8 0.00 0.00 0.00 65 1010.6
20260509195339 20 47 6.4 12.9 0.00 0.00 0.00 66 1011.0
20260509194839 20 36 3.2 4.8 0.00 0.00 0.00 63 1011.0
20260509194335 21 72 11.3 12.9 0.00 0.00 0.00 65 1010.8
20260509193832 21 73 8.0 9.7 0.00 0.00 0.00 62 1010.7
20260509193326 20 65 4.8 9.7 0.00 0.00 0.00 66 1010.9
20260509192823 20 56 8.0 16.1 0.00 0.00 0.00 65 1010.7
20260509192319 20 27 8.0 9.7 0.00 0.00 0.00 65 1010.9
20260509191814 20 28 6.4 12.9 0.00 0.00 0.00 65 1010.9
20260509191310 20 62 9.7 16.1 0.00 0.00 0.00 67 1010.9
20260509190806 20 68 8.0 20.9 0.00 0.00 0.00 67 1011.0
20260509190304 20 13 9.7 22.5 0.00 0.00 0.00 66 1010.9
20260509185801 20 75 14.5 14.5 0.00 0.00 0.00 66 1011.0
20260509185257 20 19 11.3 14.5 0.00 0.00 0.00 64 1010.7
20260509184754 20 35 8.0 16.1 0.00 0.00 0.00 65 1010.8
20260509184252 20 50 11.3 16.1 0.00 0.00 0.00 64 1010.9
20260509183748 20 34 20.9 24.1 0.00 0.00 0.00 64 1010.7
20260509183244 20 56 6.4 14.5 0.00 0.00 0.00 66 1010.7
20260509182739 20 61 8.0 16.1 0.00 0.00 0.00 66 1010.7
20260509182237 20 42 17.7 22.5 0.00 0.00 0.00 66 1010.8
20260509181734 20 8 0.0 9.7 0.00 0.00 0.00 65 1010.6
20260509181231 19 58 14.5 20.9 0.00 0.00 0.00 67 1010.8
20260509180728 20 25 9.7 12.9 0.00 0.00 0.00 64 1010.7